Flag for Hungary Weather past 2 weeks in Budapest, Hungary

Now
70 °F

Clear.


Feels Like: 70 °F
Forecast: 66 / 93 °F
Wind: 2 mph from North

Location: Ferenc Liszt International Airport

Current Time: Aug 31, 2015 at 11:49:36 PM

Latest Report: Aug 31, 2015 at 11:00 PM


Visibility: 10 mi

Pressure: 29.95 "Hg

Humidity: 78%

Dew point: 63 °F

Location of BudapestLocation

Historic Weather in Budapest — Graph

°F

Budapest temperature yesterday

Maximum temperature yesterday: 93 °F (at 3:30 PM)
Minimum temperature yesterday: 64 °F (at 4:30 AM)
Average temperature yesterday: 79 °F

Past Weeks' High & Low Weather Summary

 TemperatureHumidityPressure
High95 °F (Aug 31, 3:30 PM)100% (Aug 17, 7:30 PM)30.21 "Hg (Aug 17, 7:30 PM)
Low54 °F (Aug 24, 6:00 AM)28% (Aug 31, 3:30 PM)29.71 "Hg (Aug 16, 10:00 PM)
Average70 °F74%30.04 "Hg
* Reported Aug 16 10:00 PM — Aug 31 10:30 PM, Budapest, Weather by CustomWeather, © 2015

Note: Actual official high and low records may vary slightly from our data, if they occured in-between our weather recording intervals... More about our weather records

Advertising

Budapest weather history for previous 24 hours

 ConditionsComfort  
Time TempWeatherWind HumidityBarometerVisibility
10:30 PM
Mon, Aug 31
72 °FClear.2 mph73%29.95 "Hg10 mi
10:00 PM73 °FClear.No wind74%29.95 "Hg10 mi
9:30 PM77 °FClear.2 mph57%29.95 "Hg10 mi
9:00 PM82 °FPassing clouds.5 mph48%29.95 "HgN/A
8:30 PM79 °FClear.6 mph54%29.95 "Hg10 mi
8:00 PM84 °FSunny.7 mph45%29.95 "Hg10 mi
7:30 PM86 °FSunny.6 mph43%29.95 "Hg10 mi
7:00 PM86 °FSunny.8 mph43%29.95 "Hg10 mi
6:30 PM90 °FPassing clouds.9 mph36%29.95 "HgN/A
6:00 PM91 °FSunny.10 mph36%29.95 "Hg10 mi
5:30 PM91 °FSunny.12 mph34%29.95 "Hg10 mi
5:00 PM93 °FSunny.10 mph36%29.98 "Hg10 mi
4:30 PM93 °FSunny.9 mph32%29.98 "Hg10 mi
4:00 PM93 °FPassing clouds.12 mph30%29.98 "HgN/A
3:30 PM95 °FPassing clouds.10 mph28%30.01 "HgN/A
3:00 PM93 °FPassing clouds.12 mph32%30.01 "HgN/A
2:30 PM93 °FPassing clouds.10 mph30%30.01 "HgN/A
2:00 PM93 °FPassing clouds.10 mph30%30.04 "HgN/A
1:30 PM93 °FPassing clouds.8 mph36%30.04 "HgN/A
1:00 PM90 °FPassing clouds.8 mph38%30.04 "HgN/A
12:30 PM90 °FPassing clouds.8 mph43%30.04 "HgN/A
12:00 PM88 °FPassing clouds.7 mph46%30.07 "HgN/A
11:30 AM86 °FPassing clouds.6 mph43%30.07 "HgN/A
11:00 AM84 °FPassing clouds.6 mph48%30.07 "HgN/A
10:30 AM82 °FSunny.7 mph48%30.07 "Hg10 mi
10:00 AM82 °FPassing clouds.5 mph51%30.07 "HgN/A
9:30 AM81 °FPassing clouds.6 mph51%30.07 "HgN/A
9:00 AM77 °FSunny.7 mph57%30.07 "Hg10 mi
8:30 AM75 °FSunny.8 mph61%30.07 "Hg10 mi
8:00 AM73 °FSunny.7 mph69%30.07 "Hg10 mi
7:30 AM73 °FSunny.5 mph74%30.07 "Hg10 mi
7:00 AM70 °FSunny.3 mph73%30.07 "Hg10 mi
6:30 AM66 °FClear.2 mph83%30.07 "Hg10 mi
6:00 AM64 °FClear.2 mph88%30.07 "Hg10 mi
5:30 AM64 °FClear.2 mph88%30.07 "Hg10 mi
5:00 AM64 °FClear.2 mph88%30.07 "Hg10 mi
4:30 AM66 °FClear.2 mph83%30.09 "Hg10 mi
4:00 AM66 °FClear.2 mph88%30.09 "Hg10 mi
3:30 AM66 °FClear.3 mph88%30.09 "Hg10 mi
3:00 AM66 °FClear.2 mph88%30.09 "Hg10 mi
2:30 AM68 °FClear.3 mph83%30.09 "Hg10 mi
2:00 AM68 °FClear.No wind83%30.09 "Hg10 mi
1:30 AM70 °FClear.2 mph83%30.09 "Hg10 mi
1:00 AM70 °FClear.5 mph83%30.09 "Hg10 mi
12:30 AM72 °FClear.3 mph78%30.09 "Hg10 mi
12:00 AM72 °FClear.3 mph78%30.12 "Hg10 mi
11:30 PM
Sun, Aug 30
72 °FClear.5 mph78%30.12 "Hg10 mi
11:00 PM77 °FPassing clouds.5 mph65%30.12 "HgN/A
Weather by CustomWeather, © 2015

See weather overviewHow to use our weather pages